Data for 12/03/2016

Time Sea-Level Adjusted Pressure Absolute Pressure Temperature Relative Humidity Dew Point   
(mb) (inHg) (mb) (inHg) (C) (F) (%) (C) (F)
00:05 1018 30.06 847 25.01 -3.8 25.1 82 -6.5 20.3
00:10 1018 30.06 847 25.01 -4.2 24.4 85 -6.4 20.5
00:15 1018 30.06 847 25.01 -4.3 24.3 85 -6.5 20.4
00:20 1017 30.03 847 25.01 -4.5 23.8 85 -6.6 20.1
00:25 1017 30.03 846 24.98 -4.7 23.5 86 -6.7 20
00:30 1017 30.03 846 24.98 -4.8 23.4 86 -6.7 19.9
00:35 1017 30.03 846 24.98 -4.8 23.4 87 -6.7 20
00:40 1017 30.03 846 24.98 -4.8 23.4 87 -6.7 20
00:45 1017 30.03 846 24.98 -4.6 23.7 87 -6.6 20.2
00:50 1017 30.03 846 24.98 -4.3 24.2 86 -6.3 20.6
00:55 1017 30.03 846 24.98 -4.2 24.4 86 -6.2 20.8
01:00 1017 30.03 846 24.98 -4.1 24.6 86 -6.2 20.9
01:05 1017 30.03 846 24.98 -4.1 24.6 86 -6.1 20.9
01:10 1017 30.03 846 24.98 -4.3 24.3 87 -6.1 20.9
01:15 1017 30.03 846 24.98 -4.4 24.1 87 -6.2 20.8
01:20 1017 30.03 846 24.98 -4.5 24 87 -6.3 20.7
01:25 1017 30.03 846 24.98 -4.4 24 87 -6.3 20.7
01:30 1017 30.03 846 24.98 -4.5 23.9 87 -6.4 20.5
01:35 1017 30.03 846 24.98 -4.7 23.5 87 -6.5 20.2
01:40 1017 30.03 846 24.98 -4.7 23.5 87 -6.5 20.3
01:45 1017 30.03 846 24.98 -4.7 23.6 87 -6.6 20.2
01:50 1017 30.03 846 24.98 -4.5 23.8 86 -6.6 20.2
01:55 1017 30.03 846 24.98 -4.5 24 85 -6.6 20.2
02:00 1017 30.03 846 24.98 -4.4 24.1 84 -6.6 20.1
02:05 1017 30.03 846 24.98 -4.5 24 85 -6.6 20
02:10 1017 30.03 846 24.98 -4.5 23.9 85 -6.7 19.9
02:15 1017 30.03 846 24.98 -4.4 24 84 -6.7 19.9
02:20 1017 30.03 846 24.98 -4.4 24.1 84 -6.7 20
02:25 1017 30.03 846 24.98 -4.3 24.2 84 -6.7 20
02:30 1017 30.03 846 24.98 -4.2 24.4 83 -6.6 20
02:35 1017 30.03 846 24.98 -4.2 24.4 83 -6.7 19.9
02:40 1017 30.03 846 24.98 -4.2 24.4 83 -6.6 20.1
02:45 1017 30.03 846 24.98 -4 24.7 82 -6.6 20.1
02:50 1017 30.03 846 24.98 -4.2 24.5 83 -6.6 20.1
02:55 1017 30.03 846 24.98 -4.3 24.3 84 -6.6 20.1
03:00 1017 30.03 846 24.98 -4.1 24.6 84 -6.5 20.4
03:05 1017 30.03 846 24.98 -4 24.7 83 -6.5 20.4
03:10 1017 30.03 846 24.98 -4 24.8 83 -6.5 20.3
03:15 1017 30.03 846 24.98 -4 24.8 83 -6.5 20.4
03:20 1017 30.03 846 24.98 -3.9 24.9 83 -6.5 20.3
03:25 1017 30.03 846 24.98 -4 24.8 82 -6.6 20.1
03:30 1016 30 846 24.98 -4.1 24.6 83 -6.6 20.2
03:35 1016 30 846 24.98 -3.9 25 82 -6.5 20.3
03:40 1016 30 846 24.98 -3.9 25 82 -6.5 20.3
03:45 1016 30 846 24.98 -3.8 25.1 81 -6.7 20
03:50 1016 30 846 24.98 -3.7 25.3 81 -6.6 20.2
03:55 1016 30 846 24.98 -3.6 25.4 80 -6.6 20.2
04:00 1016 30 845 24.95 -3.6 25.5 80 -6.5 20.3
04:05 1016 30 845 24.95 -3.6 25.5 81 -6.5 20.4
04:10 1016 30 845 24.95 -3.5 25.6 80 -6.5 20.3
04:15 1016 30 845 24.95 -3.5 25.7 80 -6.5 20.3
04:20 1016 30 845 24.95 -3.5 25.6 80 -6.5 20.3
04:25 1016 30 845 24.95 -3.7 25.3 81 -6.5 20.3
04:30 1016 30 845 24.95 -3.9 24.9 83 -6.4 20.4
04:35 1016 30 845 24.95 -4 24.8 83 -6.4 20.4
04:40 1016 30 845 24.95 -4 24.8 84 -6.4 20.5
04:45 1016 30 846 24.98 -4 24.9 84 -6.3 20.6
04:50 1016 30 845 24.95 -3.9 25.1 83 -6.4 20.5
04:55 1016 30 845 24.95 -3.8 25.2 81 -6.6 20.1
05:00 1016 30 845 24.95 -3.7 25.4 79 -6.8 19.8
05:05 1016 30 845 24.95 -3.6 25.6 79 -6.7 20
05:10 1016 30 845 24.95 -3.5 25.7 76 -7.2 19
05:15 1016 30 845 24.95 -3.2 26.2 70 -7.9 17.7
05:20 1016 30 845 24.95 -3 26.6 72 -7.4 18.6
05:25 1016 30 845 24.95 -2.9 26.7 69 -7.8 17.9
05:30 1016 30 845 24.95 -2.8 27 68 -7.9 17.9
05:35 1016 30 845 24.95 -2.8 27 69 -7.6 18.3
05:40 1016 30 845 24.95 -2.9 26.8 68 -8 17.6
05:45 1016 30 845 24.95 -2.8 27 68 -7.8 17.9
05:50 1016 30 845 24.95 -2.7 27.2 68 -7.9 17.8
05:55 1016 30 845 24.95 -2.6 27.4 67 -7.9 17.8
06:00 1016 30 845 24.95 -2.3 27.8 67 -7.6 18.3
06:05 1016 30 845 24.95 -2.3 27.9 66 -7.8 18
06:10 1016 30 845 24.95 -2.2 28.1 66 -7.7 18.1
06:15 1016 30 845 24.95 -2.1 28.2 64 -8 17.5
06:20 1016 30 845 24.95 -2 28.4 63 -8 17.5
06:25 1016 30 845 24.95 -1.8 28.7 63 -8 17.6
06:30 1016 30 845 24.95 -1.8 28.8 63 -7.8 17.9
06:35 1016 30 845 24.95 -1.7 28.9 63 -7.8 17.9
06:40 1016 30 845 24.95 -1.8 28.8 64 -7.7 18.1
06:45 1016 30 845 24.95 -1.9 28.6 64 -7.7 18.1
06:50 1016 30 845 24.95 -1.9 28.6 65 -7.6 18.3
06:55 1016 30 845 24.95 -1.9 28.6 65 -7.6 18.4
07:00 1016 30 845 24.95 -1.9 28.7 65 -7.5 18.4
07:05 1016 30 845 24.95 -1.9 28.6 65 -7.5 18.4
07:10 1016 30 845 24.95 -1.8 28.8 64 -7.8 18
07:15 1016 30 845 24.95 -1.4 29.4 61 -8.1 17.4
07:20 1016 30 845 24.95 -1.2 29.9 58 -8.4 16.9
07:25 1016 30 845 24.95 -1.3 29.7 59 -8.2 17.3
07:30 1016 30 846 24.98 -1.6 29.1 61 -8.2 17.2
07:35 1016 30 846 24.98 -1.8 28.7 62 -8.2 17.3
07:40 1016 30 845 24.95 -2 28.5 63 -8.1 17.4
07:45 1016 30 845 24.95 -1.9 28.6 62 -8.3 17
07:50 1016 30 845 24.95 -1.5 29.3 58 -8.6 16.5
07:55 1016 30 846 24.98 -1.3 29.6 59 -8.4 16.9
08:00 1016 30 846 24.98 -1.6 29.2 61 -8.1 17.5
08:05 1016 30 846 24.98 -1.8 28.8 61 -8.3 17.1
08:10 1017 30.03 846 24.98 -1.7 28.9 61 -8.3 17.1
08:15 1017 30.03 846 24.98 -1.6 29.1 62 -8 17.6
08:20 1017 30.03 846 24.98 -1.5 29.3 63 -7.7 18.2
08:25 1017 30.03 846 24.98 -1.5 29.2 63 -7.7 18.2
08:30 1017 30.03 846 24.98 -1.5 29.2 63 -7.8 18
08:35 1017 30.03 846 24.98 -1.4 29.4 61 -7.9 17.7
08:40 1017 30.03 846 24.98 -1.2 29.9 59 -8.2 17.2
08:45 1017 30.03 846 24.98 -1 30.2 59 -8 17.5
08:50 1017 30.03 846 24.98 -1 30.3 59 -7.9 17.8
08:55 1017 30.03 846 24.98 -1 30.2 60 -7.8 18
09:00 1016 30 846 24.98 -1.1 30 60 -7.9 17.9
09:05 1016 30 846 24.98 -0.8 30.5 57 -8.2 17.3
09:10 1016 30 846 24.98 -0.4 31.2 56 -8.2 17.2
09:15 1016 30 846 24.98 -0.3 31.5 55 -8.4 16.9
09:20 1016 30 846 24.98 -0.2 31.7 54 -8.3 17
09:25 1016 30 846 24.98 -0 31.9 52 -8.6 16.4
09:30 1016 30 846 24.98 0.1 32.2 52 -8.6 16.6
09:35 1017 30.03 846 24.98 0.2 32.4 52 -8.5 16.7
09:40 1017 30.03 846 24.98 0.4 32.6 53 -8.2 17.3
09:45 1017 30.03 846 24.98 0.2 32.4 55 -7.8 18
09:50 1017 30.03 846 24.98 -0.1 31.7 55 -8 17.6
09:55 1017 30.03 846 24.98 -0.1 31.8 56 -7.8 17.9
10:00 1017 30.03 846 24.98 0.3 32.5 55 -7.7 18.1
10:05 1017 30.03 846 24.98 0.6 33.1 52 -8 17.6
10:10 1017 30.03 846 24.98 0.8 33.5 54 -7.5 18.5
10:15 1017 30.03 846 24.98 1 33.8 52 -7.8 18
10:20 1017 30.03 847 25.01 1.2 34.1 53 -7.5 18.6
10:25 1017 30.03 847 25.01 1.1 34 53 -7.4 18.7
10:30 1017 30.03 846 24.98 0.8 33.5 52 -7.8 17.9
10:35 1017 30.03 846 24.98 1 33.9 52 -7.8 18
10:40 1017 30.03 846 24.98 1 33.7 51 -8 17.6
10:45 1017 30.03 846 24.98 0.9 33.7 52 -7.9 17.7
10:50 1017 30.03 846 24.98 1.2 34.2 50 -8.2 17.2
10:55 1017 30.03 846 24.98 1.2 34.2 51 -8 17.7
11:00 1017 30.03 846 24.98 1.5 34.7 50 -7.9 17.9
11:05 1017 30.03 846 24.98 1.5 34.7 51 -7.5 18.6
11:10 1017 30.03 846 24.98 1.4 34.5 52 -7.3 18.8
11:15 1017 30.03 846 24.98 1.5 34.6 51 -7.7 18.1
11:20 1017 30.03 846 24.98 1.3 34.4 50 -7.9 17.8
11:25 1017 30.03 846 24.98 1.6 34.9 52 -7.2 19.1
11:30 1017 30.03 846 24.98 1.6 34.8 53 -7.1 19.3
11:35 1017 30.03 846 24.98 1.6 34.9 52 -7.3 18.9
11:40 1017 30.03 846 24.98 1.6 34.9 51 -7.4 18.7
11:45 1017 30.03 846 24.98 1.6 34.9 51 -7.4 18.7
11:50 1017 30.03 846 24.98 1.5 34.7 52 -7.3 18.8
11:55 1017 30.03 846 24.98 1.6 34.8 50 -7.8 18
12:00 1017 30.03 846 24.98 1.6 34.9 49 -7.9 17.9
12:05 1016 30 846 24.98 1.7 35.1 50 -7.7 18.2
12:10 1016 30 846 24.98 1.8 35.2 50 -7.5 18.5
12:15 1016 30 846 24.98 1.8 35.3 50 -7.6 18.3
12:20 1016 30 846 24.98 1.9 35.5 51 -7.1 19.2
12:25 1017 30.03 846 24.98 2 35.6 51 -7.1 19.2
12:30 1017 30.03 846 24.98 2.2 36 48 -7.6 18.4
12:35 1017 30.03 846 24.98 2.4 36.3 48 -7.5 18.4
12:40 1017 30.03 846 24.98 2.3 36.2 48 -7.5 18.6
12:45 1017 30.03 846 24.98 2.4 36.3 48 -7.5 18.4
12:50 1017 30.03 846 24.98 2.4 36.4 49 -7.2 19
12:55 1016 30 846 24.98 2.5 36.4 48 -7.5 18.6
13:00 1016 30 846 24.98 2.6 36.6 48 -7.4 18.7
13:05 1017 30.03 846 24.98 2.8 37.1 48 -7.3 18.9
13:10 1017 30.03 846 24.98 2.8 37 48 -7.2 19
13:15 1017 30.03 846 24.98 2.7 36.8 47 -7.5 18.6
13:20 1017 30.03 846 24.98 2.7 36.8 49 -6.9 19.5
13:25 1016 30 846 24.98 2.6 36.7 48 -7.4 18.6
13:30 1016 30 846 24.98 2.7 36.8 48 -7.2 19
13:35 1016 30 846 24.98 2.7 36.8 47 -7.5 18.5
13:40 1016 30 846 24.98 2.7 36.9 49 -7 19.5
13:45 1016 30 846 24.98 2.5 36.5 50 -6.8 19.7
13:50 1017 30.03 846 24.98 2.5 36.4 50 -7.1 19.3
13:55 1017 30.03 846 24.98 2.4 36.3 49 -7.3 18.9
14:00 1017 30.03 846 24.98 2.4 36.4 49 -7.1 19.2
14:05 1017 30.03 846 24.98 2.5 36.5 49 -7.2 19.1
14:10 1017 30.03 846 24.98 2.4 36.4 49 -7.1 19.2
14:15 1017 30.03 846 24.98 2.4 36.4 50 -7.1 19.3
14:20 1017 30.03 846 24.98 2.5 36.5 50 -7 19.4
14:25 1017 30.03 846 24.98 2.4 36.3 49 -7.2 19.1
14:30 1017 30.03 846 24.98 2.4 36.3 51 -6.9 19.7
14:35 1017 30.03 846 24.98 2.3 36.2 50 -7 19.3
14:40 1017 30.03 846 24.98 2.4 36.3 49 -7.2 19.1
14:45 1017 30.03 846 24.98 2.4 36.4 49 -7.1 19.1
14:50 1017 30.03 846 24.98 2.4 36.3 48 -7.6 18.4
14:55 1017 30.03 846 24.98 2.3 36.1 50 -7.2 19
15:00 1017 30.03 846 24.98 2.1 35.9 49 -7.4 18.6
15:05 1017 30.03 846 24.98 2.1 35.8 51 -7 19.3
15:10 1017 30.03 846 24.98 2.2 35.9 51 -7.1 19.3
15:15 1017 30.03 846 24.98 2.2 35.9 50 -7.3 18.9
15:20 1017 30.03 846 24.98 2.1 35.8 51 -7 19.3
15:25 1017 30.03 846 24.98 2.5 36.6 49 -7.2 19.1
15:30 1017 30.03 846 24.98 2.7 36.8 48 -7.1 19.2
15:35 1017 30.03 846 24.98 2.5 36.5 50 -7 19.4
15:40 1017 30.03 846 24.98 2.3 36.2 49 -7.4 18.7
15:45 1017 30.03 846 24.98 2.3 36.2 48 -7.7 18.2
15:50 1017 30.03 846 24.98 2.4 36.2 45 -8.3 17.1
15:55 1017 30.03 846 24.98 2.5 36.4 43 -8.9 16
16:00 1017 30.03 846 24.98 2.5 36.5 44 -8.6 16.5
16:05 1017 30.03 846 24.98 2.3 36.1 45 -8.5 16.7
16:10 1017 30.03 847 25.01 1.9 35.4 47 -8.2 17.3
16:15 1017 30.03 847 25.01 1.8 35.2 48 -8 17.6
16:20 1017 30.03 847 25.01 1.7 35 50 -7.7 18.2
16:25 1017 30.03 847 25.01 1.5 34.7 53 -7.1 19.2
16:30 1018 30.06 847 25.01 1.4 34.5 52 -7.5 18.5
16:35 1018 30.06 847 25.01 1.5 34.7 50 -7.7 18.1
16:40 1017 30.03 847 25.01 1.5 34.7 50 -7.8 18
16:45 1017 30.03 847 25.01 1.5 34.7 49 -8 17.6
16:50 1017 30.03 846 24.98 1.5 34.8 50 -7.8 18
16:55 1017 30.03 846 24.98 1.5 34.7 51 -7.6 18.3
17:00 1017 30.03 846 24.98 1.4 34.6 50 -7.9 17.9
17:05 1017 30.03 846 24.98 1.5 34.6 50 -7.8 18
17:10 1017 30.03 846 24.98 1.4 34.5 51 -7.7 18.2
17:15 1017 30.03 846 24.98 1.2 34.1 51 -7.8 18
17:20 1017 30.03 846 24.98 1.3 34.4 48 -8.4 16.9
17:25 1017 30.03 846 24.98 1.4 34.5 51 -7.7 18.1
17:30 1017 30.03 846 24.98 1.1 34 51 -8 17.6
17:35 1017 30.03 846 24.98 1 33.8 52 -7.8 18
17:40 1017 30.03 846 24.98 1 33.7 51 -8.2 17.3
17:45 1017 30.03 846 24.98 1 33.9 50 -8.2 17.2
17:50 1017 30.03 846 24.98 1 33.9 51 -8 17.6
17:55 1017 30.03 846 24.98 0.9 33.7 50 -8.4 16.9
18:00 1017 30.03 846 24.98 0.9 33.7 50 -8.3 17.1
18:05 1017 30.03 846 24.98 0.9 33.6 50 -8.5 16.7
18:10 1017 30.03 846 24.98 0.9 33.6 50 -8.5 16.7
18:15 1017 30.03 846 24.98 0.9 33.7 49 -8.7 16.3
18:20 1017 30.03 846 24.98 0.9 33.7 49 -8.7 16.3
18:25 1017 30.03 846 24.98 0.8 33.4 49 -8.8 16.1
18:30 1017 30.03 846 24.98 0.5 32.9 50 -8.8 16.2
18:35 1017 30.03 846 24.98 0.2 32.3 51 -8.8 16.1
18:40 1017 30.03 846 24.98 -0.1 31.8 52 -8.9 15.9
18:45 1017 30.03 846 24.98 0.1 32.2 50 -9.1 15.6
18:50 1017 30.03 846 24.98 0.5 32.9 50 -8.8 16.2
18:55 1017 30.03 847 25.01 0.6 33.1 50 -8.7 16.3
19:00 1017 30.03 847 25.01 0.6 33.1 52 -8.3 17.1
19:05 1017 30.03 847 25.01 0.6 33.1 50 -8.6 16.6
19:10 1017 30.03 847 25.01 0.6 33.2 49 -8.9 16
19:15 1017 30.03 846 24.98 0.7 33.2 49 -8.8 16.1
19:20 1017 30.03 847 25.01 0.7 33.2 49 -8.8 16.2
19:25 1018 30.06 847 25.01 0.7 33.3 48 -9 15.8
19:30 1018 30.06 847 25.01 0.7 33.2 48 -9.2 15.5
19:35 1018 30.06 847 25.01 0.6 33.1 48 -9.3 15.3
19:40 1017 30.03 847 25.01 0.7 33.2 47 -9.3 15.2
19:45 1017 30.03 846 24.98 0.7 33.2 47 -9.3 15.3
19:50 1017 30.03 846 24.98 0.6 33.1 47 -9.6 14.8
19:55 1017 30.03 846 24.98 0.6 33.1 47 -9.4 15.1
20:00 1017 30.03 846 24.98 0.6 33 47 -9.4 15.1
20:05 1017 30.03 846 24.98 0.5 32.9 47 -9.7 14.6
20:10 1017 30.03 846 24.98 0.6 33 46 -9.7 14.6
20:15 1017 30.03 847 25.01 0.5 32.9 47 -9.5 14.8
20:20 1017 30.03 846 24.98 0.4 32.6 48 -9.4 15.1
20:25 1017 30.03 846 24.98 0.2 32.4 48 -9.7 14.6
20:30 1017 30.03 847 25.01 0.3 32.6 46 -9.9 14.3
20:35 1018 30.06 847 25.01 0.5 32.9 46 -9.8 14.4
20:40 1018 30.06 847 25.01 0.4 32.8 46 -10 14
20:45 1018 30.06 847 25.01 0.5 32.9 45 -10.2 13.6
20:50 1018 30.06 847 25.01 0.6 33.1 45 -10.1 13.8
20:55 1018 30.06 847 25.01 0.5 32.9 45 -10.2 13.7
21:00 1017 30.03 847 25.01 0.5 32.8 44 -10.4 13.4
21:05 1017 30.03 847 25.01 0.4 32.7 45 -10.3 13.5
21:10 1017 30.03 846 24.98 0.3 32.6 45 -10.4 13.3
21:15 1017 30.03 846 24.98 0.4 32.8 43 -10.7 12.8
21:20 1017 30.03 846 24.98 0.4 32.8 44 -10.4 13.3
21:25 1017 30.03 846 24.98 0.3 32.6 47 -9.9 14.3
21:30 1017 30.03 846 24.98 0.1 32.2 47 -10 14
21:35 1017 30.03 847 25.01 0.2 32.3 46 -10.1 13.8
21:40 1017 30.03 846 24.98 0.3 32.5 46 -10 14
21:45 1017 30.03 846 24.98 0.3 32.5 47 -9.8 14.3
21:50 1017 30.03 846 24.98 0.2 32.4 48 -9.6 14.8
21:55 1017 30.03 846 24.98 0.1 32.1 49 -9.5 15
22:00 1017 30.03 846 24.98 -0.1 31.9 49 -9.6 14.7
22:05 1017 30.03 846 24.98 -0 32 48 -9.8 14.4
22:10 1017 30.03 846 24.98 -0 31.9 48 -9.8 14.4
22:15 1017 30.03 846 24.98 -0 32 48 -9.9 14.2
22:20 1017 30.03 846 24.98 -0 32 48 -9.8 14.4
22:25 1017 30.03 846 24.98 -0.1 31.8 48 -9.8 14.4
22:30 1017 30.03 846 24.98 -0.1 31.8 48 -9.9 14.1
22:35 1017 30.03 846 24.98 -0.1 31.9 46 -10.4 13.2
22:40 1017 30.03 846 24.98 0 32 46 -10.2 13.6
22:45 1017 30.03 846 24.98 -0.1 31.7 47 -10 14
22:50 1017 30.03 846 24.98 -0.4 31.3 48 -10.1 13.8
22:55 1017 30.03 846 24.98 -0.6 31 48 -10.2 13.7
23:00 1017 30.03 846 24.98 -0.5 31.1 47 -10.4 13.4
23:05 1017 30.03 846 24.98 -0.3 31.4 47 -10.2 13.6
23:10 1017 30.03 846 24.98 -0.4 31.3 49 -9.9 14.1
23:15 1017 30.03 846 24.98 -0.5 31.1 50 -9.8 14.4
23:20 1017 30.03 846 24.98 -0.6 30.9 49 -9.9 14.1
23:25 1017 30.03 846 24.98 -0.5 31.1 48 -10.2 13.6
23:30 1017 30.03 846 24.98 -0.3 31.4 48 -10.1 13.9
23:35 1017 30.03 846 24.98 -0.3 31.4 48 -10.1 13.8
23:40 1017 30.03 846 24.98 -0.4 31.3 48 -10.1 13.8
23:45 1016 30 846 24.98 -0.5 31 48 -10.3 13.5
23:50 1016 30 846 24.98 -0.6 30.9 49 -10.1 13.9
23:55 1016 30 846 24.98 -0.7 30.7 49 -10.2 13.6
24:00 1016 30 845 24.95 -0.6 30.9 47 -10.5 13.1